Tracking 25723 objects as of 26-Jun-2022
HD Live streaming from Space Station
objects crossing your sky now

DMSP 5D-2 F13 DEB

Track DMSP 5D-2 F13 DEB now!
10-day predictions


NORAD ID: 40399
Int'l Code: 1995-015L
Perigee: 826.1 km
Apogee: 839.2 km
Inclination: 98.8 °
Period: 101.4 minutes
Semi major axis: 7203 km
RCS: Unknown
Launch date: March 24, 1995
Source: United States (US)
Launch site: AIR FORCE WESTERN TEST RANGE (AFWTR)

Note: This is SATELLITE DEBRIS
aabbcc
Your satellite tracking list
Your tracking list is empty




NASA's NSSDC Master Catalog

Two Line Element Set (TLE):
1 40399U 95015L   22177.52448113  .00001143  00000-0  55860-3 0  9998
2 40399  98.7812 189.0056 0009084 210.8933 149.1710 14.19952885379563
Source of the keplerian elements: AFSPC